FLOCK 3P-84

Last updated on Wed Feb 14 2018 16:20:32 GMT+0000 (Coordinated Universal Time)

1 42021U 17008CB 18044.90967782 .00001135 00000-0 49923-4 0 9991 2 42021 97.4681 110.5502 0010128 73.1787 287.0560 15.23920120 55176
UTC large
Height (km)
Speed (km/s)
/
Latitude / Longitude
Inclination (degrees)
Orbital Period (minutes)
Azimuth
Elevation
Range (km)
Doppler Factor

Next 0 passes for location: London (51.5072 / 0.1276)

Sorry there are no passes over London.